Location: Saint-Palais-sur-Mer
(45.6429°N, 1.0859°W)
Time: 14:13:30
(UTC+01:00)

BlueWalker 3 - Pass Details

Date: 26 January 2026
Orbit: 451 x 461 km, 53.2° (Epoch: 13 February)

Event Time Altitude Azimuth Distance (km) Brightness Sun altitude
Rises 18:35:17 0° 242° (WSW) 2,450 7.9 -6.2°
Reaches altitude 10° 18:37:25 10° 244° (WSW) 1,580 6.3 -6.5°
Maximum altitude 18:40:57 72° 330° (NNW) 477 1.9 -7.1°
Drops below altitude 10° 18:44:31 10° 55° (NE) 1,585 3.8 -7.7°
Enters shadow 18:44:38 - 55° (NE) 1,630 3.9 -7.7°
